Weather History for West Palm Beach, FL

Change the Weather History Date:

Saturday, November 20, 2010

  Actual Average Record
Temperature  
Mean Temperature 77 °F 72 °F  
Max Temperature 81 °F 79 °F 88 °F (1948)
Min Temperature 73 °F 65 °F 44 °F (1916)
Degree Days  
Heating Degree Days 0 0  
Month to date heating degree days 9 0  
Since 1 July heating degree days 9 1  
Cooling Degree Days 12 7  
Month to date cooling degree days 149 176  
Year to date cooling degree days 3917 3797  
Growing Degree Days 27 (Base 50)    
Moisture  
Dew Point 57 °F    
Average Humidity 53    
Maximum Humidity 64    
Minimum Humidity 42    
Precipitation  
Precipitation 0.00 in 0.13 in 1.99 in (2005)
Month to date precipitation 1.10 3.43  
Year to date precipitation 51.81 57.63  
Snow  
Snow 0.00 in - - ()
Month to date snowfall 0.0  
Since 1 July snowfall 0.0  
Since 1 September snowfall 0.0  
Snow Depth 0.00 in    
Sea Level Pressure  
Sea Level Pressure 30.19 in    
Wind  
Wind Speed 10 mph (East)    
Max Wind Speed 17 mph    
Max Gust Speed 24 mph    
Visibility 10 miles    
Events      
T = Trace of Precipitation, MM = Missing Value Source: NWS Daily Summary

Daily Weather History Graph

Daily Weather History Graph

Search for Another Location

Airport:

Trip Planner

Search our weather history database for the weather conditions in past years. The results will help you decide how hot, cold, wet, or windy it might be!

Date:

Astronomy

Nov. 20, 2010 Rise Set
Actual Time 6:43 AM EST 5:28 PM EST
Civil Twilight 6:18 AM EST 5:53 PM EST
Nautical Twilight 5:50 AM EST 6:21 PM EST
Astronomical Twilight 5:22 AM EST 6:49 PM EST
Moon 4:37 PM EST (11/20) 5:39 AM EST (11/20)
Length of Visible Light 11h 34m
Length of Day
10h 44m
Waxing Gibbous, 99% of the Moon is Illuminated
Nov 20
Waxing Gibbous
Nov 21
Full
Nov 28
Last Quarter
Dec 5
New
Dec 13
First Quarter

Hourly Weather History & Observations

Time (EST) Temp. Heat Index Dew Point Humidity Pressure Visibility Wind Dir Wind Speed Gust Speed Precip Events Conditions
12:53 AM 73.9 °F - 54.0 °F 50% 30.18 in 10.0 mi ENE 10.4 mph - N/A   Scattered Clouds
1:53 AM 73.9 °F - 55.9 °F 53% 30.16 in 10.0 mi East 11.5 mph - N/A   Mostly Cloudy
2:53 AM 73.0 °F - 52.0 °F 48% 30.15 in 10.0 mi East 9.2 mph - N/A   Mostly Cloudy
3:53 AM 73.0 °F - 53.1 °F 49% 30.15 in 10.0 mi East 11.5 mph - N/A   Clear
4:53 AM 73.0 °F - 55.0 °F 53% 30.15 in 10.0 mi East 10.4 mph - N/A   Partly Cloudy
5:53 AM 73.0 °F - 54.0 °F 51% 30.17 in 10.0 mi East 10.4 mph - N/A   Partly Cloudy
6:53 AM 73.0 °F - 53.1 °F 49% 30.18 in 10.0 mi East 8.1 mph - N/A   Scattered Clouds
7:53 AM 75.0 °F - 55.9 °F 51% 30.20 in 10.0 mi East 8.1 mph - N/A   Scattered Clouds
8:53 AM 77.0 °F - 55.9 °F 48% 30.22 in 10.0 mi East 11.5 mph - N/A   Scattered Clouds
9:53 AM 79.0 °F - 57.0 °F 47% 30.24 in 10.0 mi East 13.8 mph - N/A   Scattered Clouds
10:53 AM 80.1 °F 80.4 °F 57.0 °F 45% 30.24 in 10.0 mi East 11.5 mph 20.7 mph N/A   Scattered Clouds
11:53 AM 80.1 °F 80.4 °F 57.0 °F 45% 30.22 in 10.0 mi East 13.8 mph - N/A   Mostly Cloudy
12:53 PM 80.1 °F 80.2 °F 55.9 °F 43% 30.20 in 10.0 mi East 11.5 mph - N/A   Mostly Cloudy
1:53 PM 81.0 °F 81.0 °F 57.0 °F 44% 30.19 in 10.0 mi ENE 9.2 mph - N/A   Mostly Cloudy
2:53 PM 79.0 °F - 57.0 °F 47% 30.18 in 10.0 mi East 8.1 mph - N/A   Mostly Cloudy
3:53 PM 79.0 °F - 55.0 °F 44% 30.18 in 10.0 mi ESE 11.5 mph - N/A   Mostly Cloudy
4:53 PM 78.1 °F - 55.9 °F 46% 30.18 in 10.0 mi East 9.2 mph - N/A   Mostly Cloudy
5:53 PM 77.0 °F - 57.0 °F 50% 30.19 in 10.0 mi ENE 9.2 mph - N/A   Mostly Cloudy
6:53 PM 75.9 °F - 57.9 °F 54% 30.20 in 10.0 mi East 9.2 mph - N/A   Mostly Cloudy
7:53 PM 75.0 °F - 60.1 °F 60% 30.20 in 10.0 mi East 9.2 mph - N/A   Scattered Clouds
8:53 PM 75.0 °F - 61.0 °F 62% 30.21 in 10.0 mi ENE 11.5 mph - N/A   Scattered Clouds
9:53 PM 75.0 °F - 62.1 °F 64% 30.22 in 10.0 mi East 10.4 mph - N/A   Scattered Clouds
10:53 PM 75.0 °F - 62.1 °F 64% 30.22 in 10.0 mi East 9.2 mph - N/A   Scattered Clouds
11:53 PM 73.9 °F - 61.0 °F 64% 30.22 in 10.0 mi East 6.9 mph - N/A   Scattered Clouds